Tuscaloosa, AL

8:20 AM CST on December 11, 2017 (GMT -0600)
Tuscaloosa Municipal

Weather History for KTCL - December, 2013

Change the Weather History Date:

Tuesday, December 17, 2013

  Actual Average Record
Temperature  
Mean Temperature 47 °F 46 °F  
Max Temperature 65 °F 57 °F 75 °F (1990)
Min Temperature 29 °F 36 °F 17 °F (1960)
Degree Days  
Heating Degree Days 18 19  
Month to date heating degree days 291 288  
Since 1 July heating degree days 758 725  
Moisture  
Dew Point 35 °F    
Average Humidity 63    
Maximum Humidity 89    
Minimum Humidity 37    
Precipitation  
Precipitation 0.00 in 0.14 in 3.52 in (1961)
Month to date precipitation 4.00 2.76  
Year to date precipitation 47.83 50.74  
Sea Level Pressure  
Sea Level Pressure 30.25 in    
Wind  
Wind Speed 2 mph (WSW)    
Max Wind Speed 15 mph    
Max Gust Speed 20 mph    
Visibility 9 miles    
Events      
T = Trace of Precipitation, MM = Missing Value Source: NWS Daily Summary

Daily Weather History Graph

Daily Weather History Graph

Search for Another Location

Airport or City:

Trip Planner

Search our weather history database for the weather conditions in past years. The results will help you decide how hot, cold, wet, or windy it might be!

Date:

Astronomy

Dec. 17, 2013 Rise Set
Actual Time 6:47 AM CST 4:45 PM CST
Civil Twilight 6:20 AM CST 5:13 PM CST
Nautical Twilight 5:49 AM CST 5:44 PM CST
Astronomical Twilight 5:19 AM CST 6:14 PM CST
Moon 5:22 PM CST (12/17) 6:46 AM CST (12/17)
Length of Visible Light 10h 52m
Length of Day
9h 57m
Full, 100% of the Moon is Illuminated
Dec 17
Full
Dec 25
Last Quarter
Jan 1
New
Jan 7
First Quarter
Jan 15
Full

Hourly Weather History & Observations

Time (CST) Temp. Windchill Dew Point Humidity Pressure Visibility Wind Dir Wind Speed Gust Speed Precip Events Conditions
12:53 AM 34.0 °F - 30.9 °F 89% 30.26 in 8.0 mi Calm Calm - N/A   Clear
1:53 AM 33.1 °F - 30.0 °F 89% 30.26 in 8.0 mi Calm Calm - N/A   Clear
2:53 AM 32.0 °F - 28.9 °F 88% 30.27 in 8.0 mi Calm Calm - N/A   Clear
3:53 AM 32.0 °F - 28.9 °F 88% 30.27 in 9.0 mi Calm Calm - N/A   Clear
4:53 AM 30.0 °F - 27.0 °F 88% 30.27 in 8.0 mi Calm Calm - N/A   Clear
5:53 AM 30.0 °F - 27.0 °F 88% 30.26 in 8.0 mi Calm Calm - N/A   Clear
6:53 AM 30.0 °F - 26.1 °F 85% 30.29 in 7.0 mi Calm Calm - N/A   Clear
7:53 AM 34.0 °F - 30.0 °F 85% 30.30 in 8.0 mi Calm Calm - N/A   Clear
8:53 AM 42.1 °F 39.2 °F 36.0 °F 79% 30.30 in 10.0 mi South 4.6 mph - N/A   Clear
9:53 AM 48.0 °F - 37.0 °F 66% 30.31 in 10.0 mi Calm Calm - N/A   Clear
10:53 AM 55.9 °F - 37.0 °F 49% 30.27 in 10.0 mi SW 3.5 mph - N/A   Clear
11:53 AM 62.1 °F - 37.0 °F 39% 30.23 in 10.0 mi WSW 8.1 mph - N/A   Clear
12:53 PM 64.0 °F - 37.0 °F 37% 30.19 in 10.0 mi WSW 5.8 mph - N/A   Clear
1:53 PM 64.9 °F - 37.9 °F 37% 30.19 in 10.0 mi WSW 9.2 mph - N/A   Clear
2:53 PM 64.9 °F - 37.9 °F 37% 30.18 in 10.0 mi West 10.4 mph - N/A   Clear
3:53 PM 63.0 °F - 39.0 °F 41% 30.20 in 10.0 mi WSW 6.9 mph - N/A   Clear
4:53 PM 57.9 °F - 37.9 °F 47% 30.21 in 10.0 mi WSW 4.6 mph - N/A   Clear
5:53 PM 53.1 °F - 37.9 °F 57% 30.22 in 10.0 mi Calm Calm - N/A   Clear
6:53 PM 48.0 °F - 39.0 °F 71% 30.23 in 10.0 mi Calm Calm - N/A   Clear
7:53 PM 43.0 °F - 39.0 °F 86% 30.23 in 10.0 mi Calm Calm - N/A   Clear
8:53 PM 42.1 °F - 37.9 °F 85% 30.25 in 10.0 mi Calm Calm - N/A   Clear
9:53 PM 41.0 °F - 37.0 °F 86% 30.28 in 10.0 mi Calm Calm - N/A   Clear
10:53 PM 41.0 °F - 37.0 °F 86% 30.29 in 10.0 mi Calm Calm - N/A   Clear
11:53 PM 37.9 °F - 35.1 °F 89% 30.30 in 10.0 mi Calm Calm - N/A   Clear